Location: Auckland
(36.8670°S, 174.7670°E)
Time: 17:26:25
(UTC+12:00)

Tiros 1 - All Passes

Search period start: 23 July 2019 00:00
Search period end: 02 August 2019 00:00
Orbit: 630 x 664 km, 48.4° (Epoch: 22 July)

Date Brightness Start Highest point End Pass type
(mag) Time Alt. Az. Time Alt. Az. Time Alt. Az.
23 Jul - 00:09:22 10° WNW 00:13:59 63° SSW 00:18:38 10° SE night (unlit)
23 Jul - 01:53:07 10° WSW 01:56:52 23° SSW 02:00:37 10° SE night (unlit)
23 Jul - 03:36:43 10° SW 03:40:17 21° S 03:43:51 10° ESE visible
23 Jul - 05:18:49 10° SW 05:23:20 46° SSE 05:27:52 10° ENE visible
23 Jul - 07:01:11 10° WSW 07:05:28 36° NW 07:09:45 10° NNE visible
23 Jul - 22:53:21 10° NW 22:57:56 56° NE 23:02:30 10° ESE night (unlit)
24 Jul - 00:36:01 10° W 00:40:18 34° SSW 00:44:36 10° SE night (unlit)
24 Jul - 02:20:06 10° SW 02:23:32 20° S 02:26:58 10° SE night (unlit)
24 Jul - 04:02:53 10° SW 04:06:54 27° SSE 04:10:54 10° ESE visible
24 Jul - 05:44:50 10° SW 05:49:32 89° NW 05:54:15 10° NE visible
24 Jul - 07:28:34 10° W 07:31:12 15° NW 07:33:50 10° NNW daylight
24 Jul - 21:38:33 10° N 21:42:08 22° NE 21:45:43 10° E night (unlit)
24 Jul - 23:19:20 10° WNW 23:23:59 67° SSW 23:28:39 10° SE night (unlit)
25 Jul - 01:03:01 10° WSW 01:06:49 24° SSW 01:10:37 10° SE night (unlit)
25 Jul - 02:46:43 10° SW 02:50:14 21° S 02:53:46 10° SE night (unlit)
25 Jul - 04:28:51 10° SW 04:33:19 43° SSE 04:37:49 10° E visible
25 Jul - 06:11:09 10° WSW 06:15:30 39° NW 06:19:52 10° NNE visible
25 Jul - 22:03:24 10° NW 22:07:57 51° NE 22:12:30 10° ESE night (unlit)
25 Jul - 23:45:57 10° W 23:50:17 36° SSW 23:54:37 10° SE night (unlit)
26 Jul - 01:30:02 10° SW 01:33:29 20° S 01:36:56 10° SE night (unlit)
26 Jul - 03:12:54 10° SW 03:16:52 26° SSE 03:20:49 10° ESE visible
26 Jul - 04:54:51 10° SW 04:59:33 85° SE 05:04:15 10° NE visible
26 Jul - 06:38:21 10° W 06:41:15 16° NW 06:44:10 10° N visible
26 Jul - 20:48:47 10° N 20:52:11 20° NE 20:55:35 10° E night (unlit)
26 Jul - 22:29:19 10° WNW 22:34:00 73° SSW 22:38:41 10° SE night (unlit)
27 Jul - 00:12:56 10° WSW 00:16:46 24° SSW 00:20:37 10° SE night (unlit)
27 Jul - 01:56:41 10° SW 02:00:11 20° S 02:03:41 10° SE night (unlit)
27 Jul - 03:38:53 10° SW 03:43:19 41° SSE 03:47:45 10° E visible
27 Jul - 05:21:07 10° WSW 05:25:33 42° NW 05:29:57 10° NNE visible
27 Jul - 21:13:29 10° NNW 21:17:59 47° NE 21:22:29 10° ESE night (unlit)
27 Jul - 22:55:52 10° W 23:00:16 38° SSW 23:04:39 10° SE night (unlit)
28 Jul - 00:39:57 10° SW 00:43:26 20° S 00:46:54 10° SE night (unlit)
28 Jul - 02:22:55 10° SW 02:26:49 25° SSE 02:30:43 10° ESE night (unlit)
28 Jul - 04:04:52 10° SW 04:09:33 79° SE 04:14:14 10° ENE visible
28 Jul - 05:48:10 10° W 05:51:19 18° NW 05:54:27 10° N visible
28 Jul - 19:59:01 10° N 20:02:14 18° NE 20:05:27 10° E visible
28 Jul - 21:39:17 10° WNW 21:44:00 78° SSW 21:48:42 10° SE night (unlit)
28 Jul - 23:22:50 10° WSW 23:26:44 25° SSW 23:30:38 10° SE night (unlit)
29 Jul - 01:06:40 10° SW 01:10:08 20° S 01:13:36 10° SE night (unlit)
29 Jul - 02:48:54 10° SW 02:53:18 38° SSE 02:57:40 10° E night (unlit)
29 Jul - 04:31:05 10° WSW 04:35:35 46° NW 04:40:02 10° NNE visible
29 Jul - 20:23:33 10° NNW 20:28:00 43° NE 20:32:27 10° ESE visible
29 Jul - 22:05:47 10° W 22:10:14 41° SSW 22:14:41 10° SE night (unlit)
29 Jul - 23:49:53 10° SW 23:53:22 20° S 23:56:52 10° SE night (unlit)
30 Jul - 01:32:56 10° SW 01:36:46 24° SSE 01:40:37 10° ESE night (unlit)
30 Jul - 03:14:53 10° SW 03:19:34 73° SE 03:24:13 10° ENE night (unlit)
30 Jul - 04:58:01 10° W 05:01:21 20° NW 05:04:42 10° N visible
30 Jul - 19:09:17 10° N 19:12:17 17° NE 19:15:16 10° E visible
30 Jul - 20:49:16 10° NW 20:53:59 84° SW 20:58:43 10° SE visible
30 Jul - 22:32:43 10° WSW 22:36:42 26° SSW 22:40:39 10° SE night (unlit)
31 Jul - 00:16:37 10° SW 00:20:05 20° S 00:23:32 10° SE night (unlit)
31 Jul - 01:58:56 10° SW 02:03:17 36° SSE 02:07:37 10° E night (unlit)
31 Jul - 03:41:04 10° WSW 03:45:36 51° NW 03:50:06 10° NE night (unlit)
31 Jul - 19:33:38 10° NNW 19:38:02 40° NE 19:42:26 10° ESE visible
31 Jul - 21:15:43 10° W 21:20:13 43° SSW 21:24:43 10° SE visible
31 Jul - 22:59:47 10° SW 23:03:19 21° S 23:06:51 10° SE night (unlit)
01 Aug - 00:42:56 10° SW 00:46:45 24° SSE 00:50:32 10° ESE night (unlit)
01 Aug - 02:24:54 10° SW 02:29:34 68° SSE 02:34:12 10° ENE night (unlit)
01 Aug - 04:07:53 10° W 04:11:25 21° NW 04:14:56 10° N night (unlit)
01 Aug - 18:19:35 10° NNE 18:22:20 15° NE 18:25:04 10° E visible
01 Aug - 19:59:16 10° NW 20:04:00 90° N 20:08:44 10° SE visible
01 Aug - 21:42:37 10° WSW 21:46:39 27° SSW 21:50:41 10° SE visible
01 Aug - 23:26:34 10° SW 23:30:01 20° S 23:33:28 10° SE night (unlit)
